Regional Weather Roundup
Issued by NWS Jackson, KY

Home | Current Version | Previous Version | Text Only | Print | Product List | Glossary Off
Versions: 1 2 3 4 5 6 7 8 9 10 11 12 13 14 15 16 17 18 19 20 21 22 23 24 25 26 27 28 29 30 31 32 33 34 35 36 37 38 39 40 41 42 43 44 45 46 47 48 49 50

068
ASUS43 KJKL 210110
RWRJKL

EAST KENTUCKY HOURLY WEATHER ROUNDUP
NATIONAL WEATHER SERVICE JACKSON KY
800 PM EST FRI JAN 20 2017

NOTE: "FAIR" INDICATES FEW OR NO CLOUDS BELOW 12,000 FEET WITH
NO SIGNIFICANT WEATHER AND/OR OBSTRUCTIONS TO VISIBILITY.

* THESE REPORTS ARE NOT UNDER NWS QUALITY CONTROL AND MAY NOT
  REPORT WEATHER SUCH AS PRECIPITATION AND FOG.

KYZ079-080-083-085-087-088-110-112-115-119-120-210200
...EASTERN KENTUCKY...

CITY           SKY/WX    TMP DP  RH WIND       PRES   REMARKS
JACKSON        PTCLDY    58  48  69 CALM      29.81R
LONDON         CLOUDY    53  46  77 CALM      29.80R
SOMERSET*      CLOUDY    52  46  82 CALM      29.81R
MONTICELLO*    PTCLDY    47  46  97 VRB3      29.81R
WILLIAMSBURG*  MOCLDY    57  48  72 SE5       29.81R
MIDDLESBORO*   CLEAR     51  49  94 CALM      29.83R
HARLAN APT*    PTCLDY    57  46  67 CALM      29.83R
PIKE CO APT*     N/A     60  47  61 CALM      29.82R
BIG SANDY APT* CLOUDY    59  50  71 CALM      29.82R
MOREHEAD APT*  CLOUDY    57  48  72 CALM      29.81S
ASHLAND*       CLOUDY    50  46  87 CALM      29.78R
$$

KYZ035-036-041-042-044-050-067-078-099-210200
...CENTRAL KENTUCKY...

CITY           SKY/WX    TMP DP  RH WIND       PRES   REMARKS
MT STERLING*   PTCLDY    52  48  87 CALM      29.81R
FLEMING/MASON* CLOUDY    53  48  84 CALM      29.81R
DANVILLE*      CLEAR     50  46  87 CALM      29.79R
LEXINGTON      CLOUDY    55  46  71 SE5       29.78R
FRANKFORT      PTCLDY    51  45  79 E3        29.75S
LOUISVILLE     CLOUDY    56  48  74 SE6       29.72F
LEBANON*         N/A     57  48  72 SE7       29.76S
GLASGOW*       CLOUDY    58  50  74 S3        29.74S
BOWLING GREEN  PTCLDY    58  51  78 CALM      29.74R
$$

KYZ091>093-OHZ055-061-077-WVZ005-015-034-035-042-210200
...SOUTHERN OHIO/WEST VIRGINIA...

CITY           SKY/WX    TMP DP  RH WIND       PRES   REMARKS
COVINGTON      CLOUDY    54  49  83 SE5       29.75S
COLUMBUS       MOCLDY    55  48  77 S3        29.78R
DAYTON         CLOUDY    50  46  86 CALM      29.77S
WILMINGTON     CLOUDY    51  47  86 CALM      29.77R
HUNTINGTON     CLOUDY    57  48  72 CALM      29.79R
CHARLESTON     CLOUDY    55  50  83 CALM      29.80R
PINEVILLE*     CLEAR     48  45  87 MISG      29.89R
BECKLEY        CLOUDY    52  44  74 S6        29.85R
BLUEFIELD      CLEAR     52  44  74 SW5       29.88R
LOGAN CO APT*  MOCLDY    61  48  63 S5        29.82R
$$

VAZ002-007-008-TNZ017-027-036-066-071-210200
...SOUTHWEST VIRGINIA/EAST TENNESSEE...

CITY           SKY/WX    TMP DP  RH WIND       PRES   REMARKS
WISE*          PTCLDY    54  45  71 SW9       29.87R
JONESVILLE*      N/A     50  48  93 CALM      29.86R
ABINGDON*      CLEAR     53  50  92 CALM      29.86R
BRISTOL        PTCLDY    50  47  89 CALM      29.85R
MORRISTOWN*    PTCLDY    55  52  88 CALM      29.83R
SEVIERVILLE*   CLEAR     54  46  76 CALM      29.82R
KNOXVILLE      MOCLDY    61  49  64 SW3       29.81R
LAFOLLETTE*    PTCLDY    54  50  87 CALM      29.85R
OAK RIDGE      MOCLDY    57  50  77 CALM      29.82R
CROSSVILLE     CLEAR     56  48  74 S5        29.83R
NASHVILLE      MOCLDY    62  51  67 S8G21     29.75R
$$

...KEY TO REMARKS...
VSB - VISIBILITY IN MILES
WCI - WIND CHILL INDEX
HX  - HEAT INDEX

$$




USA.gov is the U.S. government's official web portal to all federal, state and local government web resources and services.